sat.trackr.live / text

‹ back to catalog

LEO EXPRESS 1

NORAD 58301 · 2023-174AX

PAYLOAD ACTIVE UNKNOWN

§ Identity

Operator
Country
US
Launch date
2023-11-11
Launch site
AFWTR
Launch vehicle
Mass (kg)
RCS (m²)

External: N2YO · Heavens-Above · Gunter

§ Orbital elements

Epoch: 2026-09-21T18:19:51.353184Z

Period
93.66 min
Inclination
97.5150°
Eccentricity
0.0070418
Mean motion
15.37408932 rev/d
Perigee alt
405.7 km
Apogee alt
501.9 km
Semi-major
6,831.9 km
B*
2.8717e-4
RAAN
352.3337°
Arg perigee
136.0637°
Mean anomaly
224.6237°
Rev number
15,972

§ Raw data

LEO EXPRESS 11 58301U 23174AX  26264.76378881  .00011371  00000+0  28717-3 0  99922 58301  97.5150 352.3337 0070418 136.0637 224.6237 15.37408932159720

JSON: /api/v1/satellites/58301 · /tle

For live sub-satellite position, see the globe view (requires WebGL).

§ Visibility from observer

Set your observer location to see the next 7 days of passes ≥ 10°. The values pass through the URL so the page stays shareable.

No JS? Fill the form by hand. The geolocation button needs JavaScript.

§ Radio — SatNOGS DB

ModeDescriptionDownlinkUplink
FM Mode U - Transmitter 402.680 MHz

1 transmitter · refreshed weekly from db.satnogs.org